When you browse on this site, cookies collect data to enhance your experience and personalize the content and advertising you see.
Visit our Privacy Policy to learn more. By continuing to use the site, you agree to this use of cookies and data.
  • en France
  • Liste des pays
  • À 7 jours
  • Température de l'eau
  • Carte satellitaire
  • Carte météo
  • Widgets météo
  • user-avatar
    Se connecter

    Météo par heure à Burutu

    Ce jour, 22 Juillet, Lundi

    Heure Température Précipitation Vent Pression Humidité
    00:00 +26°C° 0.1 mm 3 m/s 759 mmHg 91%
    01:00 +26°C° 0.2 mm 3 m/s 759 mmHg 92%
    02:00 +26°C° 0.2 mm 3 m/s 759 mmHg 92%
    03:00 +26°C° 0.2 mm 3 m/s 758 mmHg 92%
    04:00 +26°C° 0.8 mm 2 m/s 759 mmHg 92%
    05:00 +26°C° 0.8 mm 2 m/s 759 mmHg 92%
    06:00 +26°C° 0.8 mm 2 m/s 759 mmHg 92%
    07:00 +27°C° 0.6 mm 3 m/s 759 mmHg 88%
    08:00 +28°C° 0.6 mm 3 m/s 760 mmHg 83%
    09:00 +29°C° 0.6 mm 4 m/s 760 mmHg 79%
    10:00 +29°C° 1.3 mm 5 m/s 760 mmHg 78%
    11:00 +29°C° 1.3 mm 5 m/s 759 mmHg 78%
    12:00 +30°C° 1.3 mm 6 m/s 759 mmHg 77%
    13:00 +29°C° 1.4 mm 6 m/s 758 mmHg 78%
    14:00 +29°C° 1.4 mm 6 m/s 758 mmHg 79%
    15:00 +28°C° 1.4 mm 6 m/s 757 mmHg 80%
    16:00 +28°C° 0.6 mm 5 m/s 758 mmHg 83%
    17:00 +27°C° 0.6 mm 5 m/s 758 mmHg 85%
    18:00 +27°C° 0.6 mm 4 m/s 758 mmHg 87%
    19:00 +27°C° 0.3 mm 4 m/s 759 mmHg 88%
    20:00 +27°C° 0.3 mm 4 m/s 759 mmHg 88%
    21:00 +27°C° 0.3 mm 4 m/s 760 mmHg 88%
    22:00 +26°C° 0.1 mm 4 m/s 759 mmHg 88%
    23:00 +26°C° 0.1 mm 3 m/s 759 mmHg 88%

    Demain, 23 Juillet, Mardi

    Heure Température Précipitation Vent Pression Humidité
    00:00 +26°C° 0.1 mm 3 m/s 759 mmHg 89%
    01:00 +26°C° 0.3 mm 3 m/s 759 mmHg 89%
    02:00 +26°C° 0.3 mm 3 m/s 759 mmHg 89%
    03:00 +26°C° 0.3 mm 3 m/s 758 mmHg 89%
    04:00 +26°C° 0.7 mm 3 m/s 759 mmHg 89%
    05:00 +26°C° 0.7 mm 3 m/s 759 mmHg 89%
    06:00 +26°C° 0.7 mm 3 m/s 759 mmHg 89%
    07:00 +26°C° 0.7 mm 4 m/s 760 mmHg 87%
    08:00 +27°C° 0.7 mm 4 m/s 760 mmHg 84%
    09:00 +28°C° 0.7 mm 5 m/s 760 mmHg 82%
    10:00 +28°C° 0.7 mm 5 m/s 760 mmHg 79%
    11:00 +29°C° 0.7 mm 5 m/s 760 mmHg 77%
    12:00 +29°C° 0.7 mm 5 m/s 760 mmHg 75%
    13:00 +29°C° 0.6 mm 5 m/s 759 mmHg 75%
    14:00 +29°C° 0.6 mm 5 m/s 758 mmHg 75%
    15:00 +29°C° 0.6 mm 6 m/s 758 mmHg 76%
    16:00 +28°C° 0.1 mm 5 m/s 758 mmHg 78%
    17:00 +27°C° 0.1 mm 4 m/s 759 mmHg 81%
    18:00 +27°C° 0.1 mm 3 m/s 759 mmHg 84%
    19:00 +27°C° 0.1 mm 3 m/s 759 mmHg 85%
    20:00 +27°C° 0.1 mm 2 m/s 760 mmHg 86%
    21:00 +26°C° 0.1 mm 2 m/s 760 mmHg 87%
    22:00 +26°C° 0.2 mm 2 m/s 760 mmHg 87%
    23:00 +26°C° 0.2 mm 2 m/s 760 mmHg 88%

    Après-demain, 24 Juillet, Mercredi

    Heure Température Précipitation Vent Pression Humidité
    00:00 +26°C° 0.2 mm 2 m/s 759 mmHg 88%
    01:00 +26°C° 0.1 mm 2 m/s 759 mmHg 88%
    02:00 +26°C° 0.1 mm 2 m/s 759 mmHg 88%
    03:00 +26°C° 0.1 mm 2 m/s 758 mmHg 89%
    04:00 +26°C° 0.1 mm 2 m/s 759 mmHg 89%
    05:00 +26°C° 0.1 mm 2 m/s 759 mmHg 89%
    06:00 +26°C° 0.1 mm 2 m/s 759 mmHg 89%
    07:00 +26°C° 0.3 mm 2 m/s 760 mmHg 86%
    08:00 +27°C° 0.3 mm 2 m/s 760 mmHg 83%
    09:00 +28°C° 0.3 mm 2 m/s 760 mmHg 80%
    10:00 +28°C° 0.5 mm 3 m/s 760 mmHg 78%
    11:00 +28°C° 0.5 mm 3 m/s 760 mmHg 76%
    12:00 +29°C° 0.5 mm 3 m/s 760 mmHg 73%
    13:00 +29°C° 0.6 mm 4 m/s 759 mmHg 73%
    14:00 +29°C° 0.6 mm 4 m/s 758 mmHg 73%
    15:00 +29°C° 0.6 mm 4 m/s 757 mmHg 73%
    16:00 +28°C° 0 mm 4 m/s 758 mmHg 76%
    17:00 +28°C° 0 mm 3 m/s 758 mmHg 79%
    18:00 +27°C° 0 mm 3 m/s 758 mmHg 82%
    19:00 +27°C° 0 mm 3 m/s 758 mmHg 84%
    20:00 +26°C° 0 mm 2 m/s 759 mmHg 85%
    21:00 +26°C° 0 mm 2 m/s 759 mmHg 86%
    22:00 +26°C° 0 mm 2 m/s 759 mmHg 87%
    23:00 +26°C° 0 mm 2 m/s 759 mmHg 88%

    25 Juillet, Jeudi

    Heure Température Précipitation Vent Pression Humidité
    00:00 +26°C° 0 mm 2 m/s 759 mmHg 89%
    01:00 +26°C° 0.2 mm 2 m/s 759 mmHg 88%
    02:00 +26°C° 0.2 mm 2 m/s 759 mmHg 88%
    03:00 +26°C° 0.2 mm 2 m/s 759 mmHg 88%
    04:00 +26°C° 0.5 mm 2 m/s 759 mmHg 89%
    05:00 +26°C° 0.5 mm 2 m/s 759 mmHg 89%
    06:00 +26°C° 0.5 mm 2 m/s 760 mmHg 89%
    07:00 +27°C° 0.3 mm 2 m/s 760 mmHg 85%
    08:00 +28°C° 0.3 mm 3 m/s 760 mmHg 80%
    09:00 +29°C° 0.3 mm 3 m/s 760 mmHg 75%
    10:00 +29°C° 0.6 mm 4 m/s 760 mmHg 74%
    11:00 +30°C° 0.6 mm 4 m/s 759 mmHg 73%
    12:00 +30°C° 0.6 mm 5 m/s 759 mmHg 72%
    13:00 +30°C° 0.3 mm 5 m/s 758 mmHg 73%
    14:00 +29°C° 0.3 mm 5 m/s 758 mmHg 74%
    15:00 +29°C° 0.3 mm 5 m/s 757 mmHg 75%
    16:00 +28°C° 0.1 mm 5 m/s 757 mmHg 78%
    17:00 +28°C° 0.1 mm 5 m/s 757 mmHg 81%
    18:00 +27°C° 0.1 mm 4 m/s 758 mmHg 83%
    19:00 +27°C° 0.1 mm 4 m/s 758 mmHg 84%
    20:00 +27°C° 0.1 mm 4 m/s 759 mmHg 85%
    21:00 +27°C° 0.1 mm 4 m/s 760 mmHg 86%
    22:00 +27°C° 0.1 mm 4 m/s 760 mmHg 86%
    23:00 +27°C° 0.1 mm 4 m/s 759 mmHg 86%

    26 Juillet, Vendredi

    Heure Température Précipitation Vent Pression Humidité
    00:00 +26°C° 0.1 mm 4 m/s 759 mmHg 86%
    01:00 +26°C° 0.1 mm 4 m/s 759 mmHg 87%
    02:00 +26°C° 0.1 mm 4 m/s 759 mmHg 87%
    03:00 +26°C° 0.1 mm 4 m/s 759 mmHg 87%
    04:00 +26°C° 0.2 mm 4 m/s 759 mmHg 88%
    05:00 +26°C° 0.2 mm 4 m/s 759 mmHg 88%
    06:00 +26°C° 0.2 mm 3 m/s 759 mmHg 88%
    07:00 +27°C° 0.1 mm 4 m/s 760 mmHg 86%
    08:00 +27°C° 0.1 mm 4 m/s 760 mmHg 84%
    09:00 +27°C° 0.1 mm 4 m/s 761 mmHg 82%
    10:00 +28°C° 0.1 mm 4 m/s 760 mmHg 79%
    11:00 +29°C° 0.1 mm 4 m/s 760 mmHg 76%
    12:00 +30°C° 0.1 mm 4 m/s 759 mmHg 73%
    13:00 +29°C° 0.2 mm 5 m/s 759 mmHg 73%
    14:00 +29°C° 0.2 mm 5 m/s 758 mmHg 73%
    15:00 +29°C° 0.2 mm 6 m/s 758 mmHg 74%
    16:00 +28°C° 0 mm 5 m/s 758 mmHg 76%
    17:00 +28°C° 0 mm 5 m/s 758 mmHg 79%
    18:00 +27°C° 0 mm 4 m/s 758 mmHg 82%
    19:00 +27°C° 0.1 mm 4 m/s 759 mmHg 83%
    20:00 +27°C° 0.1 mm 4 m/s 759 mmHg 84%
    21:00 +27°C° 0.1 mm 4 m/s 760 mmHg 85%
    22:00 +27°C° 0.1 mm 4 m/s 760 mmHg 85%
    23:00 +26°C° 0.1 mm 4 m/s 759 mmHg 85%

    27 Juillet, Samedi

    Heure Température Précipitation Vent Pression Humidité
    00:00 +26°C° 0.1 mm 4 m/s 759 mmHg 86%
    01:00 +26°C° 0 mm 4 m/s 759 mmHg 86%
    02:00 +26°C° 0 mm 4 m/s 759 mmHg 87%
    03:00 +26°C° 0 mm 3 m/s 759 mmHg 87%
    04:00 +26°C° 0.2 mm 3 m/s 759 mmHg 87%
    05:00 +26°C° 0.2 mm 4 m/s 759 mmHg 87%
    06:00 +26°C° 0.2 mm 4 m/s 760 mmHg 87%
    07:00 +26°C° 0.6 mm 4 m/s 760 mmHg 86%
    08:00 +27°C° 0.6 mm 4 m/s 760 mmHg 85%
    09:00 +27°C° 0.6 mm 4 m/s 761 mmHg 85%
    10:00 +27°C° 0.7 mm 4 m/s 760 mmHg 84%
    11:00 +27°C° 0.7 mm 4 m/s 760 mmHg 83%
    12:00 +27°C° 0.7 mm 4 m/s 760 mmHg 82%
    13:00 +28°C° 0.5 mm 4 m/s 759 mmHg 80%
    14:00 +28°C° 0.5 mm 4 m/s 759 mmHg 79%
    15:00 +28°C° 0.5 mm 5 m/s 758 mmHg 77%
    16:00 +28°C° 0.3 mm 4 m/s 758 mmHg 80%
    17:00 +27°C° 0.3 mm 4 m/s 758 mmHg 82%
    18:00 +26°C° 0.3 mm 4 m/s 758 mmHg 85%
    19:00 +26°C° 0 mm 3 m/s 759 mmHg 85%
    20:00 +26°C° 0 mm 3 m/s 759 mmHg 86%
    21:00 +26°C° 0 mm 3 m/s 760 mmHg 87%
    22:00 +26°C° 0 mm 3 m/s 760 mmHg 87%
    23:00 +26°C° 0 mm 3 m/s 759 mmHg 87%
    Voir plus